Rexburg, ID

8:41 AM MDT on August 27, 2016 (GMT -0600)
Rexburg-Madison County

Weather History for KRXE - August, 2013

Change the Weather History Date:

Friday, August 30, 2013

  Actual Average Record
Temperature  
Mean Temperature 72 °F 62 °F  
Max Temperature 90 °F 79 °F 91 °F (2007)
Min Temperature 53 °F 45 °F 41 °F (2005)
Degree Days  
Heating Degree Days 0 4  
Month to date heating degree days 0 38  
Since 1 June heating degree days 117 240  
Since 1 July heating degree days 0 68  
Cooling Degree Days 7 1  
Month to date cooling degree days 158 84  
Year to date cooling degree days 412 198  
Since 1 June cooling degree days 410 194  
Growing Degree Days 22 (Base 50)    
Moisture  
Dew Point 46 °F    
Average Humidity 47    
Maximum Humidity 77    
Minimum Humidity 17    
Precipitation  
Precipitation 0.01 in 0.04 in 0.57 in (1986)
Month to date precipitation 0.16 0.92  
Year to date precipitation 5.28 8.88  
Sea Level Pressure  
Sea Level Pressure 30.03 in    
Wind  
Wind Speed 7 mph (South)    
Max Wind Speed 18 mph    
Max Gust Speed 24 mph    
Visibility 10 miles    
Events Rain , Thunderstorm    
T = Trace of Precipitation, MM = Missing Value Source: NWS Daily Summary

Daily Weather History Graph

Daily Weather History Graph

Search for Another Location

Airport or City:

Trip Planner

Search our weather history database for the weather conditions in past years. The results will help you decide how hot, cold, wet, or windy it might be!

Date:

Astronomy

Aug. 30, 2013 Rise Set
Actual Time 6:48 AM MDT 8:05 PM MDT
Civil Twilight 6:18 AM MDT 8:35 PM MDT
Nautical Twilight 5:43 AM MDT 9:11 PM MDT
Astronomical Twilight 5:05 AM MDT 9:48 PM MDT
Moon 1:24 AM MDT (8/30) 4:30 PM MDT (8/30)
Length of Visible Light 14h 16m
Length of Day
13h 17m
Waning Crescent, 28% of the Moon is Illuminated
Aug 30
Waning Crescent
Sep 5
New
Sep 12
First Quarter
Sep 19
Full
Sep 26
Last Quarter

Hourly Weather History & Observations

Time (MDT) Temp. Dew Point Humidity Pressure Visibility Wind Dir Wind Speed Gust Speed Precip Events Conditions
12:53 AM 64.9 °F 50.0 °F 58% 30.04 in 10.0 mi SSW 8.1 mph - N/A   Clear
1:53 AM 66.0 °F 48.9 °F 54% 30.02 in 10.0 mi South 3.5 mph - N/A   Clear
2:53 AM 57.9 °F 48.9 °F 72% 30.04 in 10.0 mi North 3.5 mph - N/A   Clear
3:53 AM 55.9 °F 48.0 °F 75% 30.05 in 10.0 mi North 3.5 mph - N/A   Clear
4:53 AM 55.0 °F 48.0 °F 77% 30.05 in 10.0 mi NE 3.5 mph - N/A   Clear
5:53 AM 54.0 °F 46.9 °F 77% 30.06 in 10.0 mi Calm Calm - N/A   Clear
6:53 AM 53.1 °F 46.9 °F 80% 30.08 in 10.0 mi NNE 3.5 mph - N/A   Clear
7:53 AM 55.0 °F 48.0 °F 77% 30.09 in 10.0 mi ENE 5.8 mph - N/A   Clear
8:53 AM 59.0 °F 50.0 °F 72% 30.11 in 10.0 mi Calm Calm - N/A   Clear
9:53 AM 69.1 °F 51.1 °F 53% 30.08 in 10.0 mi Calm Calm - 0.00 in Rain Light Rain
10:53 AM 75.0 °F 52.0 °F 44% 30.09 in 10.0 mi WNW 6.9 mph - 0.00 in   Partly Cloudy
11:53 AM 73.0 °F 54.0 °F 51% 30.07 in 10.0 mi SSE 9.2 mph - 0.01 in Rain , Thunderstorm Light Rain
12:08 PM 73.4 °F 53.6 °F 50% 30.20 in 10.0 mi SSE 6.9 mph - 0.00 in   Partly Cloudy
12:53 PM 82.0 °F 50.0 °F 33% 30.04 in 10.0 mi SSW 8.1 mph - 0.00 in   Clear
1:53 PM 87.1 °F 46.9 °F 25% 30.01 in 10.0 mi WSW 11.5 mph - N/A   Clear
2:53 PM 87.1 °F 45.0 °F 23% 30.00 in 10.0 mi SW 13.8 mph 18.4 mph N/A   Clear
3:53 PM 89.1 °F 41.0 °F 19% 29.97 in 10.0 mi SSW 12.7 mph - N/A   Clear
4:53 PM 90.0 °F 39.0 °F 17% 29.96 in 10.0 mi SSW 15.0 mph - N/A   Clear
5:53 PM 88.0 °F 41.0 °F 19% 29.95 in 10.0 mi SSW 15.0 mph - N/A   Clear
6:53 PM 84.0 °F 46.0 °F 26% 29.95 in 10.0 mi SSW 8.1 mph - N/A   Clear
7:53 PM 80.1 °F 45.0 °F 29% 29.95 in 10.0 mi SSW 10.4 mph - N/A   Clear
8:53 PM 73.0 °F 46.0 °F 38% 29.97 in 10.0 mi SSE 6.9 mph - N/A   Clear
9:53 PM 73.9 °F 39.9 °F 29% 29.95 in 10.0 mi South 8.1 mph - N/A   Clear
10:53 PM 71.1 °F 37.9 °F 30% 29.95 in 10.0 mi South 6.9 mph - N/A   Clear
11:53 PM 71.1 °F 35.1 °F 27% 29.96 in 10.0 mi South 12.7 mph - N/A   Clear